View from above orbital plane
|
View from above satellite
|
Ground track
|
The orbit data is extracted from the following two-line orbital elements,
1 24797U 97020F 21101.84237104 .00000097 00000-0 15784-4 0 9996
2 24797 86.9034 202.5306 0224171 347.1017 125.9318 14.44236156259189
Epoch (UTC): | 11 April 2021 20:13:00 |
Eccentricity: | 0.0224171 |
inclination: | 86.9034° |
perigee height: | 585 km |
apogee height: | 904 km |
right ascension of ascending node: | 202.5306° |
argument of perigee: | 347.1017° |
revolutions per day: | 14.44236156 |
mean anomaly at epoch: | 125.9318° |
orbit number at epoch: | 25918 |
The dashed part of the orbit path shows where the satellite is in the earth's shadow,
|
|